Current Weather Conditions by Major Hwy


I-84 West to East [Columbia River Gorge] 700 AM PST TUE FEB 20 2018 ELEVA CITY SKY/WX TMP DP RH WIND PRES REMARKS 10 ASTORIA, OR LGT SNOW 33 30 88 E6 30.14S FOG 20 KELSO LGT SNOW 31 28 89 S3 30.20F FOG 40 PORTLAND, OR CLOUDY 32 27 81 SE10 30.22S WCI 24 30 TROUTDALE, OR CLOUDY 32 28 85 E7 30.22F 240 THE DALLES, OR PTCLDY 22 17 81 W3 30.26S 620 HERMISTON, OR MOCLDY 19 13 77 SW3 30.23S 1,480 PENDLETON, OR CLOUDY 20 11 68 SE6 30.17F 2,710 LA GRANDE CLOUDY 8 3 80 SE3 30.17R 3,370 BAKER CITY CLOUDY 11 0 61 SE5 30.10R 2,190 ONTARIO CLEAR 9 1 70 W5 30.23R
I-90 West to East 700 AM PST TUE FEB 20 2018 ELEVA CITY SKY/WX TMP DP RH WIND PRES REMARKS 30 SEATAC AIRPORT CLOUDY 29 19 66 SE7 30.16F 1,730 ELLENSBURG MOCLDY 17 9 70 E5 30.14F 1,200 MOSES LAKE PTCLDY 13 10 88 N5 30.22S 1,880 SPOKANE GEIGER MOCLDY 11 4 73 SE6 30.14S
I-82 North West to South East 700 AM PST TUE FEB 20 2018 ELEVA CITY SKY/WX TMP DP RH WIND PRES REMARKS 1,730 ELLENSBURG MOCLDY 17 9 70 E5 30.14F 1,050 YAKIMA TC FAIR 12 6 75 CALM 30.16S 720 360 PASCO CLEAR 16 11 80 N5 30.27S 620 HERMISTON, OR MOCLDY 19 13 77 SW3 30.23S
Hwy97 North to South 700 AM PST TUE FEB 20 2018 ELEVA CITY SKY/WX TMP DP RH WIND PRES REMARKS 850 OMAK CLEAR 7 1 76 N5 30.24S 630 WENATCHEE CLEAR 13 8 81 NW3 30.20F 1,730 ELLENSBURG MOCLDY 17 9 70 E5 30.14F 1,050 YAKIMA TC FAIR 12 6 75 CALM 30.16S 1,640 GOLDENDALE* PTCLDY 22 17 81 W3 30.26S *From Dallesport Airport Elev 240 3,080 REDMOND CLOUDY 9 5 84 SE5 30.09S 4,100 KLAMATH FALLS MOCLDY 10 7 87 CALM 30.07S
I-5 North to South 700 AM PST TUE FEB 20 2018 ELEVA CITY SKY/WX TMP DP RH WIND PRES REMARKS 150 BELLINGHAM CLOUDY 23 16 74 N8 30.19F 100 ARLINGTON CLOUDY 24 18 77 N3 30.20S 610 EVERETT CLOUDY 28 18 66 E7 30.16S 30 SEATAC AIRPORT CLOUDY 29 19 66 SE7 30.16F 200 OLYMPIA MOCLDY 26 24 92 CALM 30.17F 20 KELSO LGT SNOW 31 28 89 S3 30.20F FOG 100 VANCOUVER CLOUDY 33 28 81 SE6 30.21F 40 PORTLAND CLOUDY 32 27 81 SE10 30.22S WCI 24 200 SALEM CLOUDY 33 27 78 S7 30.19F 360 EUGENE CLOUDY 31 29 92 SE7 30.23S 510 ROSEBURG CLOUDY 32 29 88 NE3 30.24S 1,300 MEDFORD CLOUDY 28 23 81 CALM 30.23R
Data from:
http://www.wrh.noaa.gov/sew/get.php?pil=RWR&sid=OR&version=0&format=printer
http://www.wrh.noaa.gov/sew/get.php?pil=RWR&sid=WA&version=0&format=printer

Current Observations

Washington State Current Weather Observations   …  Oregon State Current Weather Observation



48 Hour Forecast

Seattle  …  Vancouver  …  Portland
————————————————————————————————————————
Bend  …  Spokane  …  Richland  …  Pendleton  …  Blue Mountains I-84  …  Yakima
————————————————————————————————————————
Goldendale, Washington Higher Elevations  …  Dallesport Airport - Goldendale  …  Bingen - White Salmon - Hood River  …  Index


Top of Page